User: anonymous   Login
Location: Mount Tamalpais State Park
(37.9108°N, 122.6128°W)
Time: 20:44:19
(UTC-07:00)
Language:

Cosmos 1814 Rocket - Orbit

View from above orbital plane
View from above orbital plane
View from above satellite
View from above satellite

Ground track
Ground track

The orbit data is extracted from the following two-line orbital elements,

1 17304U 87006B   15145.84774686  .00000059  00000-0  28114-4 0  9996
2 17304 074.0606 035.2146 0028865 062.0989 298.3082 14.37498403485040
Epoch (UTC): 25 May 2015 20:20:45
Eccentricity: 0.0028865
inclination: 74.0606°
perigee height: 746 km
apogee height: 787 km
right ascension of ascending node: 35.2146°
argument of perigee: 62.0989°
revolutions per day: 14.37498403
mean anomaly at epoch: 298.3082°
orbit number at epoch: 48504

The dashed part of the orbit path shows where the satellite is in the earth's shadow,  

DLR